Theta_e
309 312 313 310 306 313 307 308 304 307 310 315 317 318 319 320 328 329 331 338 341 344 344 343 345 348 349 352 356 358 359 359
306 309 310 309 311 304 306 299 298 303 305 307 313 316 319 321 324 328 336 339 341 343 344 344 345 348 350 352 355 357 358 357
305 303 303 304 304 306 308 305 300 299 304 315 313 316 317 319 321 327 335 340 340 342 345 345 345 346 348 351 353 356 359 359
300 306 308 307 305 306 301 301 304 304 305 316 316 318 318 318 321 330 333 341 342 342 345 345 346 345 346 349 352 358 363 364
298 301 304 302 305 307 307 306 303 300 303 316 317 317 317 315 319 324 331 339 343 344 344 345 346 348 347 351 351 354 363 357
295 299 302 299 301 304 304 300 301 302 305 311 313 314 316 318 323 327 328 337 343 345 346 347 351 353 354 352 350 355 356 356
302 301 301 302 301 302 301 303 300 304 304 309 312 315 319 325 327 329 330 333 341 345 347 347 351 356 355 353 353 355 360 357
299 301 301 299 302 303 304 303 303 304 304 312 315 323 325 329 332 333 335 334 336 345 348 348 349 352 354 355 358 358 360 360
296 300 300 297 302 303 304 305 306 302 309 325 325 327 330 332 334 335 337 338 337 340 347 350 350 352 353 355 355 358 360 362
296 299 291 307 315 314 310 316 316 320 323 325 327 330 332 337 335 337 339 342 342 341 344 350 353 354 355 354 359 357 359 361
293 294 298 303 310 312 311 312 314 313 316 319 325 330 331 336 337 338 341 344 347 347 344 348 351 356 359 355 356 357 357 360
296 291 290 305 310 314 315 307 315 314 315 316 320 318 325 332 334 335 336 344 348 351 347 347 353 360 359 359 358 357 358 360
294 293 298 307 312 317 304 303 311 313 316 315 314 319 325 332 332 332 334 338 348 352 352 348 352 355 357 359 358 360 360 360
294 292 291 312 312 306 305 309 309 314 319 318 319 322 326 328 329 329 330 334 341 350 350 350 354 354 359 358 361 361 360 359
298 299 309 313 308 309 309 307 310 313 319 321 321 322 324 327 327 326 328 328 335 346 347 352 355 356 354 358 359 360 361 361
300 304 307 309 313 312 309 309 312 314 318 320 320 323 324 326 325 324 324 323 325 330 343 351 354 355 356 359 359 357 356 359
300 304 307 309 311 313 314 315 312 313 318 319 321 322 324 324 322 323 321 321 321 320 323 328 336 343 350 357 359 357 356 356
296 305 304 307 311 312 312 312 312 312 317 320 320 320 320 320 319 320 319 319 318 318 319 321 323 326 332 337 348 356 354 354
302 306 306 307 310 312 313 313 314 314 317 320 320 320 318 316 316 316 317 317 317 316 318 319 318 319 322 328 340 353 355 353
Wind_Speed
21 20 22 21 24 21 22 18 12 11 14 12 14 14 7 12 5 6 11 20 24 26 25 25 25 25 24 21 19 19 19 16
17 18 18 25 15 19 14 22 23 17 18 9 4 7 7 6 6 7 6 16 21 23 25 23 24 23 23 22 20 20 19 17
13 16 19 12 15 15 18 20 17 17 16 13 13 13 7 10 7 6 4 12 18 21 23 23 23 24 23 22 21 20 18 16
21 11 12 20 21 20 14 18 12 15 12 7 2 2 2 4 9 6 5 9 15 19 21 22 23 24 24 22 21 20 18 16
15 13 9 14 16 20 20 17 18 17 14 15 13 9 5 9 10 8 5 8 14 17 20 22 23 21 22 22 22 21 18 19
10 16 10 18 15 17 18 16 17 19 14 11 9 11 11 11 9 12 10 7 13 16 18 19 20 19 19 21 23 20 20 21
2 2 3 9 16 19 18 20 19 15 20 20 20 13 13 12 10 11 11 7 10 15 16 18 20 19 20 21 21 21 19 20
5 2 4 7 13 13 14 15 16 18 16 14 6 11 11 11 13 13 12 11 9 14 17 20 20 20 19 20 20 20 20 20
9 5 6 11 14 13 15 15 15 16 11 9 7 10 11 13 12 13 14 12 12 12 16 18 20 20 21 20 19 19 20 19
7 5 13 13 6 4 7 17 14 13 13 12 14 16 16 6 13 16 17 15 13 14 12 16 19 20 19 21 20 20 20 21
8 12 6 9 9 8 2 9 10 9 10 13 18 19 6 17 18 18 19 18 16 14 16 15 19 18 18 20 21 21 22 22
8 12 15 13 7 7 1 8 13 11 13 14 17 8 11 23 20 19 19 18 18 17 14 15 15 17 18 20 20 23 22 20
8 9 6 8 8 8 11 6 13 13 11 13 9 10 16 17 19 18 17 19 20 17 14 14 11 16 19 19 22 19 19 18
10 9 9 13 5 5 5 7 12 12 11 12 13 15 16 14 16 17 18 18 18 16 12 11 9 14 17 19 15 16 16 17
6 6 6 9 9 4 4 6 8 13 14 14 14 14 15 14 15 15 17 16 16 18 9 6 7 10 13 13 13 13 14 15
6 8 3 3 6 5 4 7 10 13 17 14 13 14 13 11 12 12 15 15 15 16 19 10 3 6 9 9 12 13 14 15
9 8 7 4 4 10 9 9 12 14 14 14 14 13 12 10 11 10 12 13 13 14 14 15 16 16 13 5 10 12 13 13
7 7 6 9 9 14 13 11 13 14 15 12 13 12 12 9 9 10 10 12 13 13 13 14 14 14 15 14 13 10 11 11
11 11 11 13 15 15 10 11 14 13 13 9 11 10 10 8 9 8 9 10 12 13 12 12 13 13 13 12 10 8 9 7
Wind_Direction
219 214 223 201 224 239 252 256 260 228 211 233 253 249 237 261 275 287 237 203 199 198 195 196 197 199 199 196 200 200 201 199
193 215 213 239 200 220 233 240 241 228 249 240 215 231 171 219 297 326 249 198 197 197 195 197 197 198 201 199 200 201 202 200
173 208 185 193 222 219 237 221 240 237 238 228 236 263 294 314 334 349 266 199 197 195 195 198 195 199 200 203 199 200 201 199
203 191 235 219 212 207 224 222 240 270 248 155 73 110 245 297 6 0 298 196 197 196 196 195 200 198 199 203 204 200 195 199
199 174 191 229 223 231 230 247 231 228 234 252 257 252 290 333 343 336 296 204 193 194 199 198 200 199 202 200 204 201 197 200
237 221 213 204 222 222 239 228 233 239 249 238 221 271 301 325 327 326 311 244 205 202 202 203 201 201 200 200 205 200 201 205
64 63 239 268 211 216 229 239 244 242 240 243 259 287 322 308 305 314 321 286 230 213 207 209 207 203 200 204 202 203 201 207
212 192 221 231 219 239 246 241 246 253 261 288 318 306 301 318 324 322 321 326 276 224 214 210 212 212 206 203 200 203 201 205
218 176 226 233 222 224 230 231 246 244 255 18 309 318 322 315 327 329 329 321 297 264 224 217 214 206 211 208 206 205 204 205
257 192 223 89 46 45 262 53 19 348 4 351 332 317 304 29 359 341 331 324 309 288 247 227 219 211 208 205 202 207 210 206
241 223 162 148 47 19 335 104 58 5 343 346 332 303 229 25 351 338 328 316 305 293 268 240 225 214 205 207 204 206 207 208
187 253 225 69 15 342 270 183 24 2 348 350 337 346 338 340 341 336 325 316 308 300 281 264 229 208 208 206 208 208 206 207
217 238 122 15 340 306 224 46 342 339 342 342 340 313 306 329 332 336 328 320 314 295 281 268 233 211 209 208 213 210 206 205
241 236 225 6 62 344 12 337 324 330 328 334 326 320 325 335 337 338 331 331 326 305 297 271 228 211 209 214 213 210 208 209
331 51 54 82 93 61 357 335 329 322 330 340 327 330 328 341 345 346 339 341 340 325 305 264 222 220 214 215 210 209 209 210
322 126 46 338 121 91 10 337 333 330 328 349 331 328 335 349 347 357 350 347 351 0 0 6 300 226 229 209 205 207 209 209
272 275 318 225 50 356 350 345 345 331 335 353 340 342 344 359 351 354 360 346 359 13 12 10 10 18 2 280 200 206 207 209
281 48 333 314 334 327 322 338 330 331 330 359 349 352 353 6 359 357 2 355 359 7 13 11 14 12 7 355 337 217 208 206
288 308 294 281 292 292 301 327 325 322 314 357 359 353 6 358 2 6 17 13 7 7 2 8 12 8 359 351 332 292 239 222